www.pogodaiklimat.ru

ПОГОДА в Эль Сентро, CA

  • Прогноз погоды в Эль Сентро
  • Монитор погоды в Эль Сентро
  • Климат в Эль Сентро

АРХИВ ПОГОДЫ в Эль Сентро

Время (UTC), дата Ветер
(напр.,м/с)
 
Видим.   Явления Облачность Т
(С)
Тd
(С)
f
(%)
Тe
(С)
Тes
(С)
Комфортность

P
(гПа)

Po
(гПа)
Тmin
(С)
Tmax
(С)
R
(мм)
SD
(см)
07:56 23.05 ЮЗ  16 км    ясно  +15.6  +5.0  49  +14  +14    1010.2  1010.2         
08:56 23.05 З  16 км    ясно  +15.6  +3.9  46  +14  +14    1010.4  1010.2         
09:56 23.05 З  16 км    ясно  +13.9  +5.0  55  +12  +12    1010.5  1010.6         
10:56 23.05 З  16 км    ясно  +14.4  +4.4  51  +13  +13    1011.9  1011.9  +13.9  +16.1     
11:56 23.05 З  16 км    5/0 2100 м
[средняя верхняя] 
+15.6  +5.0  49  +14  +14    1012.4  1012.3         
12:56 23.05 З  10  16 км    5/0 2100 м
[средняя верхняя] 
+17.2  +5.6  46  +16  +16    1013.0  1013.0         
13:56 23.05 З  10
{14} 
16 км    5/0 2100 м
[средняя верхняя] 
+18.9  +5.0  40  +18  +18    1013.9  1014.0         
14:56 23.05 ЮЗ  13  16 км    5/0 2100 м
[средняя верхняя] 
+21.1  +5.0  35  +22  +22  комфорт  1014.7  1014.7         
15:56 23.05 ЮЗ  16 км    5/0 2400 м
[средняя] 
+22.2  +3.9  30  +22  +23  комфорт  1015.4  1015.3         
16:56 23.05 ЮЗ  16 км    8/0 2400 м
[средняя] 
+23.3  +2.8  26  +23  +25  комфорт  1015.7  1015.7  +14.4  +23.3     
17:56 23.05 ЮЗ  4
{10} 
16 км    8/0 2100 м
[средняя] 
+23.9  +2.8  25  +23  +27  комфорт  1015.6  1015.7         
18:56 23.05 ЮЗ  4
{8} 
16 км    8/0 2100 м
[средняя] 
+25.0  +3.3  24  +24  +30  комфорт  1015.4  1015.3         
19:56 23.05 ЮЗ  16 км    8/0 2250 м
[средняя] 
+25.6  +2.8  23  +24  +31  комфорт  1014.9  1015.0         
20:56 23.05 З  16 км    8/0 2400 м
[средняя] 
+25.6  +2.8  23  +24  +30  комфорт  1014.5  1014.7         
21:56 23.05 З  5
{8} 
16 км    8/0 2400 м
[средняя] 
+26.7  +3.3  22  +25  +28  комфорт  1013.9  1014.0         
22:56 23.05 ЮЗ  4
{8} 
16 км    5/0 2400 м
[средняя] 
+25.0  +3.3  24  +24  +29  комфорт  1013.8  1013.6  +23.3  +26.7     
23:56 23.05 З  16 км    ясно  +25.6  +3.9  25  +25  +27  комфорт  1013.4  1013.3         
00:56 24.05 СЗ  16 км    5/0 2400 м
[средняя] 
+23.9  +5.0  29  +24  +24  комфорт  1013.8  1013.6         
01:56 24.05 СЗ  16 км    5/0 2400 м
[средняя] 
+21.7  +5.6  35  +22  +22  комфорт  1014.2  1014.0         
02:56 24.05 СЗ  16 км    2/0 2400 м
[средняя верхняя] 
+20.6  +5.6  37  +21  +21  комфорт  1014.9  1015.0         
03:56 24.05 СЗ  16 км    ясно  +19.4  +5.6  40  +19  +19    1015.7  1015.7         
04:56 24.05 З  16 км    2/0 2400 м
[средняя верхняя] 
+18.3  +5.6  43  +18  +18    1015.5  1015.3  +18.3  +26.1     
05:56 24.05 СЗ  16 км    ясно  +17.2  +5.6  46  +17  +17    1015.5  1015.3         
06:56 24.05 СЗ  16 км    ясно  +16.7  +5.6  48  +16  +16    1015.2  1015.0         
07:56 24.05 С  16 км    ясно  +15.6  +5.0  49  +15  +15    1014.9  1015.0         
08:56 24.05 СЗ  16 км    ясно  +13.9  +5.6  57  +13  +13    1014.7  1014.7         
09:56 24.05 СЗ  16 км    ясно  +13.9  +5.0  55  +13  +13    1014.7  1014.7         
10:56 24.05 СЗ  16 км    ясно  +13.3  +5.0  57  +13  +13    1014.8  1014.7  +12.8  +18.9     
11:56 24.05   16 км    ясно  +12.8  +3.9  55  +13  +13    1015.3  1015.3         
12:56 24.05   16 км    ясно  +15.6  +5.0  49  +16  +16    1015.9  1015.7         
13:06 24.05 ЮЗ  16 км    ясно  +16.1  -2.2  28  +17  +18      1016.0         
13:56 24.05 ЮЗ  16 км    ясно  +18.3  +5.6  43  +19  +20    1016.0  1016.0         
14:56 24.05 СЗ  16 км    ясно  +21.7  +4.4  32  +22  +26  комфорт  1016.1  1016.0         
15:56 24.05 нст  16 км    ясно  +23.3  +4.4  29  +23  +31  комфорт  1015.8  1015.7         
16:56 24.05   16 км    ясно  +25.0  +4.4  26  +24  +43  комфорт  1015.3  1015.3  +12.8  +25.6     
17:56 24.05 В  16 км    ясно  +26.1  +5.0  26  +25  +37  комфорт  1015.1  1015.0         
18:56 24.05 нст  16 км    2/0 3000 м
[средняя] 
+27.2  +3.9  22  +26  +42  жарко  1014.2  1014.3         
19:56 24.05 нст  16 км    ясно  +27.8  +2.8  20  +26  +45  жарко  1013.4  1013.3         
20:56 24.05 нст  16 км    ясно  +28.9  +2.2  18  +27  +43  жарко  1012.5  1012.6         
21:56 24.05   16 км    ясно  +28.9  +1.1  17  +27  +48  жарко  1011.7  1011.6         
22:56 24.05 нст  16 км    ясно  +28.9  +1.7  17  +27  +37  жарко  1011.1  1010.9  +25.0  +29.4     
23:56 24.05 нст  16 км    ясно  +28.9  +2.2  18  +27  +34  жарко  1010.7  1010.6         
00:56 25.05 З  16 км    ясно  +28.3  +1.7  18  +26  +29  жарко  1010.4  1010.2         
01:56 25.05   16 км    ясно  +26.1  +2.2  21  +25  +25  комфорт  1010.3  1010.2         
02:56 25.05 В  16 км    ясно  +23.9  +2.2  24  +23  +23  комфорт  1010.2  1010.2         
03:56 25.05 З  16 км    ясно  +22.2  +5.6  34  +23  +23  комфорт  1010.7  1010.6         
04:56 25.05 ЮЗ  16 км    ясно  +22.8  +7.8  38  +24  +24  комфорт  1010.6  1010.6  +21.7  +29.4     
05:56 25.05 З  16 км    ясно  +20.6  +7.8  44  +22  +22  комфорт  1010.5  1010.6         

 

Местоположение метеостанции El Centro Naval Air Facility: широта 32.8250 долгота -115.6606 высота над уровнем моря -13 м.

В архиве по умолчанию представлена погода в Эль Сентро за последние 1-2 суток. Обновление информации о фактической погоде в базе происходит ежечасно! Архивные данные за месяц целиком и за предыдущие месяцы Вы можете получить, выбрав интересующий диапазон дат из раскрывающегося списка и нажав кнопку "Ввод!".

Внимание! Архив погоды МЕТАР в базе сайта хранится не более 60 дней. Нет смысла пытаться выбрать более раннюю дату.

Внимание! Время в таблицах - всемирное. Для получения местного времени необходимо прибавить поправку, которая в Эль Сентро равна -8 ч.

Ветер - указаны скорость ветра в м/с и направление, откуда дует ветер: С - северный, СВ - северо-восточный, В - восточный, ЮВ - юго-восточный, Ю - южный, ЮЗ - юго-западный, З - западный, СЗ - северо-западный.
Видимость - горизонтальная дальность видимости в метрах или километрах. При видимости от 1 до 10 км при отсутствии осадков обычно наблюдается дымка, при ухудшении видимости до 1 км и менее - туман. В сухую погоду видимость может ухудшаться дымом, пылью или мглою.
Атмосферные явления - указаны явления, наблюдавшиеся в указанный момент времени.
Облачность - указаны через наклонную черту верхняя и нижняя облачность в баллах и высота нижней границы облаков в метрах. Внимание: облачность, как и прочие метеорологические величины в США измеряются автоматическими метеостанциями. Указанные значения в баллах носят условный характер и показывают процент времени, в течение которого, в среднем, лазерный луч высотомера отражался от облаков обратно.
T - Температура воздуха - температура, измеренная на высоте 2 м над землей.
Td - Температура точки росы - температура, при понижении до которой содержащийся в воздухе водяной пар достигнет насыщения.
f - Относительная влажность воздуха - влажноcть воздуха, измеренная на высоте 2 м над землей.
Te - Эффективная температура - температура, которую ощущает одетый по сезону человек в тени. Характеристика душности погоды. При расчете учитывается влияние влажности воздуха и скорости ветра на теплоощущения человека.
Tes - Эффективная температура на солнце - температура, которую ощущает человек, с поправкой на солнечный нагрев. Характеристика знойности погоды. Зависит от высоты солнца над горизонтом, облачности и скорости ветра. Ночью, в пасмурную погоду, а также при ветре 12 м/с и более поправка равна нулю.
P - Атмосферное давление - приведенное к уровню моря атмосферное давление.
Po - Атмосферное давление - измеренное на уровне метеостанции атмосферное давление.
Tmin - Минимальная температура - минимум температуры воздуха на высоте 2 м над землей.
Tmax - Максимальная температура - максимум температуры воздуха на высоте 2 м над землей.
R - Количество осадков - Количество выпавших осадков за 3 или 6 часов, мм.
SD - Снежный покров - Высота снежного покрова, см.